Weather History for KDDH - January, 2013

Change the Weather History Date:

Saturday, January 26, 2013

  Actual Average Record
Temperature  
Mean Temperature 10 °F 21 °F  
Max Temperature 18 °F 31 °F 23 °F (2014)
Min Temperature 1 °F 12 °F 4 °F (2014)
Degree Days  
Heating Degree Days 55 44  
Month to date heating degree days 1077 1140  
Since 1 July heating degree days 3522 3912  
Cooling Degree Days 0 0  
Month to date cooling degree days 0 0  
Year to date cooling degree days 0 0  
Moisture  
Dew Point 1 °F    
Average Humidity 67    
Maximum Humidity 87    
Minimum Humidity 47    
Precipitation  
Precipitation T in 0.07 in 0.00 in (2015)
Month to date precipitation 0.45 2.36  
Year to date precipitation 0.45 2.36  
Sea Level Pressure  
Sea Level Pressure 30.13 in    
Wind  
Wind Speed 4 mph (WNW)    
Max Wind Speed 13 mph    
Max Gust Speed 18 mph    
Visibility 9 miles    
Events Snow    
T = Trace of Precipitation, MM = Missing Value Source: NWS Daily Summary

Daily Weather History Graph

Daily Weather History Graph

Search for Another Location

Airport or City:

Trip Planner

Search our weather history database for the weather conditions in past years. The results will help you decide how hot, cold, wet, or windy it might be!

Date:

Astronomy

Jan. 26, 2013 Rise Set
Actual Time 7:13 AM EST 4:58 PM EST
Civil Twilight 6:42 AM EST 5:28 PM EST
Nautical Twilight 6:08 AM EST 6:03 PM EST
Astronomical Twilight 5:35 AM EST 6:36 PM EST
Moon 4:51 PM EST (1/26) 6:28 AM EST (1/26)
Length of Visible Light 10h 45m
Length of Day
9h 44m
Full, 100% of the Moon is Illuminated
Jan 26
Full
Jan 26
Full
Feb 3
Last Quarter
Feb 10
New
Feb 17
First Quarter

Hourly Weather History & Observations

Time (EST) Temp. Windchill Dew Point Humidity Pressure Visibility Wind Dir Wind Speed Gust Speed Precip Events Conditions
12:00 AM 10.4 °F - 6.8 °F 85% 30.02 in 3.0 mi Calm Calm - 0.00 in Snow Light Snow
12:26 AM 10.4 °F - 6.8 °F 85% 30.01 in 6.0 mi Calm Calm - 0.00 in   Overcast
12:54 AM 8.1 °F - 5.0 °F 87% 30.06 in 10.0 mi Calm Calm - 0.00 in   Partly Cloudy
1:54 AM 8.1 °F - 3.9 °F 83% 30.06 in 4.0 mi Calm Calm - N/A   Overcast
2:27 AM 6.8 °F - 3.2 °F 85% 30.00 in 7.0 mi Calm Calm - N/A   Mostly Cloudy
2:41 AM 6.8 °F - 1.4 °F 79% 30.00 in 10.0 mi Calm Calm - N/A   Scattered Clouds
2:54 AM 5.0 °F - 1.9 °F 87% 30.05 in 10.0 mi Calm Calm - N/A   Clear
3:54 AM 3.9 °F - -0.9 °F 80% 30.06 in 10.0 mi Calm Calm - N/A   Clear
4:54 AM 3.9 °F - -2.0 °F 76% 30.06 in 10.0 mi Calm Calm - N/A   Clear
5:54 AM 5.0 °F -4.1 °F 1.0 °F 84% 30.08 in 10.0 mi SSW 4.6 mph - N/A   Clear
6:54 AM 1.9 °F - -2.9 °F 80% 30.09 in 10.0 mi Calm Calm - N/A   Clear
7:54 AM 3.9 °F -3.4 °F -0.0 °F 84% 30.12 in 10.0 mi West 3.5 mph - N/A   Clear
8:54 AM 9.0 °F - 1.9 °F 73% 30.13 in 10.0 mi Calm Calm - N/A   Clear
9:54 AM 10.0 °F -0.9 °F 1.0 °F 67% 30.15 in 10.0 mi NW 6.9 mph - N/A   Scattered Clouds
10:54 AM 12.0 °F 1.5 °F -0.0 °F 59% 30.15 in 10.0 mi NNW 6.9 mph - N/A   Clear
11:54 AM 14.0 °F 2.0 °F 1.9 °F 59% 30.14 in 10.0 mi West 9.2 mph - N/A   Clear
12:28 PM 14.0 °F 1.2 °F 1.4 °F 57% 30.09 in 10.0 mi West 10.4 mph 16.1 mph N/A   Mostly Cloudy
12:54 PM 15.1 °F 4.2 °F 1.9 °F 56% 30.13 in 10.0 mi WNW 8.1 mph - N/A   Partly Cloudy
1:54 PM 16.0 °F 3.6 °F -0.9 °F 47% 30.14 in 10.0 mi NW 10.4 mph - N/A   Clear
2:54 PM 18.0 °F 9.8 °F -0.9 °F 44% 30.15 in 10.0 mi Variable 5.8 mph - N/A   Mostly Cloudy
3:54 PM 17.1 °F 8.7 °F -0.0 °F 47% 30.17 in 10.0 mi NW 5.8 mph - N/A   Partly Cloudy
4:54 PM 15.1 °F 6.4 °F -0.0 °F 51% 30.19 in 10.0 mi NNW 5.8 mph - N/A   Mostly Cloudy
5:54 PM 14.0 °F 6.5 °F -0.9 °F 52% 30.22 in 10.0 mi NW 4.6 mph - N/A   Clear
6:54 PM 12.9 °F 5.2 °F -2.9 °F 49% 30.25 in 10.0 mi NW 4.6 mph - N/A   Clear
7:54 PM 12.0 °F 5.9 °F -2.9 °F 51% 30.26 in 10.0 mi NW 3.5 mph - N/A   Clear
8:54 PM 10.0 °F 3.6 °F -2.9 °F 56% 30.27 in 10.0 mi WNW 3.5 mph - N/A   Clear
9:54 PM 10.9 °F -1.8 °F -2.0 °F 56% 30.29 in 10.0 mi West 9.2 mph - N/A   Mostly Cloudy
11:54 PM 6.1 °F - -2.0 °F 69% 30.32 in 10.0 mi Calm Calm - N/A   Clear